Location: Montagagne
(42.9754°N, 1.4113°E)
Time: 02:22:13
(UTC+00:00)

Daily predictions for brighter satellites

Satellite Brightness Start Highest point End
(mag) Time Altitude Azimuth Time Altitude Azimuth Time Altitude Azimuth
Cosmos 2297 Rocket 4.0 00:05:45 10° N 00:10:29 27° NE 00:15:01 11° ESE
Cosmos 1782 3.8 00:08:51 10° N 00:11:51 37° ENE 00:11:51 37° ENE
SL-08 ROCKET BODY 4.3 00:11:57 57° SSW 00:13:17 84° W 00:19:18 10° N
NOSS 3-4 (A) 4.2 00:06:56 10° NW 00:13:45 52° WSW 00:15:35 44° SSW
NOSS 3-4 (C) 4.2 00:07:00 10° NW 00:13:50 52° WSW 00:15:41 44° SSW
BREEZE-M DEB (TANK) 4.4 00:11:46 10° W 00:15:48 54° N 00:30:34 10° ENE
Cosmos 2058 3.2 00:18:00 57° NE 00:18:00 57° NE 00:21:24 10° NNE
Cosmos 1818 3.6 00:13:39 10° NW 00:19:00 58° WSW 00:19:09 58° SW
Cosmos 44 3.2 00:19:22 61° WNW 00:19:32 61° NW 00:23:53 10° NNE
Cosmos 2228 4.2 00:22:39 10° NNW 00:25:54 30° WNW 00:25:54 30° WNW
Cosmos 1680 Rocket 3.7 00:26:36 10° NNW 00:31:51 64° ENE 00:33:13 46° SE
RESURS DK-1 4.2 00:29:57 10° N 00:33:19 25° NE 00:34:58 19° E
Cosmos 1697 Rocket 4.1 00:32:50 22° ESE 00:33:52 24° ESE 00:38:16 10° NE
H-2A R/B 3.3 00:34:14 36° ENE 00:34:23 36° ENE 00:37:52 10° N
Cosmos 1656 3.7 00:33:45 58° SSE 00:34:38 68° ESE 00:40:11 10° NNE
Cosmos 923 Rocket 3.8 00:34:05 10° NNW 00:39:17 81° WSW 00:39:56 67° S
Cosmos 2227 Rocket 4.3 00:37:28 10° N 00:41:53 23° NE 00:46:18 10° ESE
Cosmos 1400 Rocket 3.7 00:40:35 10° NNW 00:43:29 39° WNW 00:43:29 39° WNW
EO 1 Delta rocket 4.4 00:46:45 43° W 00:46:50 43° W 00:51:14 10° NNW
Cosmos 1937 Rocket 3.9 00:47:15 43° WSW 00:48:19 51° WNW 00:53:20 10° N
ISS -0.9 00:50:51 10° NW 00:53:21 19° N 00:55:51 10° NE
H-2A R/B 4.3 00:54:48 10° ENE 00:57:04 14° E 00:58:11 13° ESE
Cosmos 1441 Rocket 4.1 00:58:03 36° ENE 00:58:03 36° ENE 01:00:57 10° NNE
Cosmos 2315 Rocket 4.0 00:52:47 10° N 00:59:12 80° W 01:01:14 46° S
Cosmos 1933 3.2 01:03:12 10° N 01:07:01 80° ENE 01:07:01 80° ENE
DELTA 2 R/B (1) 3.9 01:07:24 45° SSE 01:07:24 45° SSE 01:12:26 10° E
Meteor 2-3 Rocket 3.8 01:10:11 46° S 01:11:59 76° E 01:17:48 10° NNE
CZ-2C R/B 2.7 01:11:03 51° SSW 01:12:17 68° WSW 01:17:50 10° NNW
DNEPR-1 R/B 3.7 01:08:34 10° NW 01:12:14 52° W 01:12:14 52° W
Orbus 7S? 4.3 01:17:40 43° SSE 01:18:30 48° ESE 01:26:23 10° NE
Cosmos 1655 Rocket 4.2 01:20:19 40° SW 01:22:31 60° W 01:28:52 10° N
Cosmos 1606 Rocket 4.3 01:19:19 10° NNW 01:23:12 36° W 01:23:12 36° W
Cosmos 1048 Rocket 4.4 01:18:21 10° NNW 01:23:40 62° ENE 01:26:52 24° SE
Cosmos 2058 Rocket 3.0 01:20:05 10° N 01:24:31 80° E 01:25:27 55° SSE
Cosmos 1315 Rocket 2.8 01:20:55 10° N 01:24:42 67° E 01:25:07 61° ESE
IDEFIX/ARIANE 42P 2.7 01:25:19 10° NNE 01:30:30 67° ESE 01:32:15 41° S
SL-08 R/B 4.4 01:33:23 36° S 01:36:04 78° E 01:42:10 10° N
CZ-2C R/B 3.7 01:33:26 10° N 01:37:52 37° WNW 01:39:09 31° WSW
CZ-4C R/B 4.2 01:37:33 10° WNW 01:41:00 19° NNW 01:45:03 10° NNE
Meteor 1-26 Rocket 4.1 01:36:24 10° N 01:41:50 78° E 01:44:35 30° SSE
ADEOS II 3.8 01:42:13 10° NE 01:46:33 26° E 01:50:13 13° SE
Cosmos 2263 Rocket 3.7 01:42:45 10° N 01:47:57 35° ENE 01:53:04 10° ESE
Cosmos 494 Rocket 4.3 01:43:04 10° NNW 01:48:04 47° WSW 01:49:10 40° SW
Cosmos 2297 Rocket 2.4 01:49:20 10° NW 01:54:47 51° WSW 01:56:44 35° SSW
CZ-2D R/B 2.8 01:52:59 10° NNE 01:58:02 45° E 02:01:07 22° SSE
MOZ.5/SAFIR/RUBIN 5/SL-8 3.6 01:56:34 33° SSE 01:58:40 87° WSW 02:03:21 10° NNW
BREEZE-M DEB (TANK) 2.9 02:00:07 10° NW 02:02:30 39° NNE 02:04:40 10° E
Cosmos 1758 Rocket 3.4 02:05:25 40° SSW 02:06:56 80° W 02:11:20 10° N
Cosmos 1602 Rocket 3.6 02:05:12 33° S 02:07:01 69° E 02:11:19 10° NNE
Cosmos 1980 Rocket 2.4 02:05:14 28° S 02:08:06 63° ESE 02:13:39 10° NNE
H-2A R/B 4.3 02:09:35 14° W 02:09:35 14° W 02:11:05 10° NW
Tiangong -1.4 02:10:35 41° SSE 02:10:35 41° SSE 02:13:24 10° E
RESURS DK-1 3.4 02:07:21 10° NW 02:10:15 27° W 02:10:15 27° W
Resurs 1-4 Rocket 2.3 02:07:03 10° NNE 02:12:21 67° ESE 02:15:35 24° S
Cosmos 1626 Rocket 3.8 02:12:06 37° SW 02:13:28 52° WNW 02:17:44 10° N
SeaSat 1 2.5 02:11:34 28° S 02:13:55 54° WSW 02:18:44 10° NW
Nadezhda 1 Rocket 3.9 02:08:12 10° N 02:14:29 86° W 02:19:10 19° S
Cosmos 468 4.4 02:10:28 10° NNW 02:15:48 76° WSW 02:19:48 18° S
Cosmos 1745 Rocket 4.0 02:12:25 25° S 02:16:23 88° W 02:22:48 10° N
Cosmos 1697 Rocket 3.1 02:14:32 27° SW 02:17:25 52° WNW 02:22:58 10° NNE
H-2A R/B 4.3 02:18:03 10° NE 02:21:19 17° E 02:24:32 10° SE
BlueWalker 3 3.7 02:20:30 10° NW 02:23:49 32° NNE 02:27:08 10° E
Cosmos 614 Rocket 4.0 02:19:13 10° NNW 02:24:17 77° ENE 02:29:19 10° SSE
FENGYUN 3A 3.7 02:19:31 10° N 02:24:53 68° WNW 02:27:59 26° SSW
Cosmos 2227 Rocket 2.2 02:20:46 10° NNW 02:26:22 62° WSW 02:31:20 13° S
Cosmos 2150 Rocket 4.4 02:24:21 21° S 02:27:56 62° ESE 02:33:19 10° NNE
MSX 4.4 02:22:45 10° N 02:28:10 45° WNW 02:31:23 23° SW
Cosmos-2242 4.0 02:25:03 10° NNW 02:28:35 27° W 02:29:26 25° WSW
ISS -2.4 02:27:29 10° NW 02:30:42 42° NNE 02:33:54 10° E
Cosmos 1709 Rocket 4.1 02:25:56 19° S 02:30:42 87° E 02:37:06 10° N
Okean 1 3.1 02:28:58 10° NNW 02:32:41 65° W 02:34:28 28° S
H-2A R/B 2.3 02:28:41 10° N 02:32:43 51° WNW 02:34:42 28° SW
Okean 1-7 Rocket 3.6 02:35:08 26° SSW 02:37:36 72° W 02:42:05 10° N
ATLAS 2AS CENTAUR R/B 3.3 02:32:05 10° NNW 02:38:45 57° NE 02:45:20 10° SE
SL-23 DEB 3.9 02:37:58 31° S 02:39:01 44° SE 02:42:18 10° ENE
USA 290 3.4 02:36:37 10° N 02:39:49 45° ENE 02:42:58 10° SE
ALOS 2.2 02:41:03 10° NNE 02:45:38 86° E 02:49:03 18° SSW
Cosmos 1743 3.1 02:45:31 15° SSE 02:48:05 49° E 02:51:21 10° NNE
Cosmos 2221 2.5 02:45:12 10° NNW 02:49:24 59° W 02:52:33 17° S
Cosmos 1125 Rocket 4.4 02:46:24 19° WSW 02:49:37 37° WNW 02:54:31 10° N
Cosmos 192 4.5 02:46:47 22° SW 02:49:55 63° WNW 02:54:50 10° NNE
Cosmos 2298 Rocket 4.0 02:48:25 19° SSW 02:52:18 85° WNW 02:57:39 10° NNE
DELTA 2 R/B (1) 3.6 02:48:05 12° W 02:53:10 63° S 02:58:41 10° ESE
Cosmos 2151 3.2 02:51:45 22° SSW 02:54:15 53° W 02:58:20 10° N
Cosmos 1953 Rocket 3.7 02:56:51 11° S 03:00:59 74° E 03:05:20 10° NNE
Cosmos 2322 Rocket 4.3 02:58:15 10° SSE 03:02:29 22° E 03:06:43 10° NE
Cosmos 2369 3.7 03:01:07 16° SSW 03:05:39 75° WNW 03:11:20 10° NNE
Cosmos 2333 Rocket 4.1 03:02:54 10° SSE 03:07:31 26° ESE 03:12:08 10° NE
Meteor 1-19 Rocket 4.1 03:02:47 10° NNW 03:08:14 77° W 03:13:46 10° S
IDEFIX/ARIANE 42P 4.4 03:06:05 10° NNW 03:09:23 17° WNW 03:12:42 10° W
Lacrosse 5 rocket 3.5 03:09:49 10° NNW 03:13:15 28° NNE 03:16:38 10° E
Meteor 1-20 Rocket 4.4 03:08:15 12° SSW 03:13:43 69° WNW 03:19:32 10° N
Meteor 1-28 Rocket 3.6 03:10:56 10° SSE 03:14:13 55° ENE 03:17:31 10° N
Cosmos 2082 3.7 03:10:42 10° NNW 03:16:23 77° WSW 03:22:00 10° SSE
USA 234 3.5 03:11:26 10° NE 03:17:54 64° SE 03:24:13 11° SW
Cosmos 1707 3.6 03:18:30 10° N 03:21:39 42° E 03:24:46 10° SSE
Cosmos 2154 Rocket 4.5 03:18:33 10° S 03:24:41 64° E 03:30:53 10° NNE
Cosmos 921 Rocket 3.2 03:20:27 10° NNW 03:24:46 52° WSW 03:28:59 10° S
Cosmos 2219 3.4 03:19:25 10° NW 03:24:53 49° WSW 03:30:17 10° S
CZ-3 R/B 4.1 02:49:40 10° WSW 03:25:36 48° S 03:35:38 10° ESE
Cosmos 1733 2.6 03:22:41 10° S 03:25:40 82° E 03:28:41 10° N
Cosmos 1825 Rocket 4.4 03:22:38 13° SW 03:26:00 33° WNW 03:29:58 10° N
ADEOS II 2.7 03:21:19 10° N 03:26:14 42° WNW 03:31:02 10° SW
SL-16 R/B 2.7 03:21:27 10° S 03:27:00 61° ESE 03:32:35 10° NNE
Envisat 3.5 03:23:30 10° N 03:28:21 46° WNW 03:33:10 10° SW
SL-16 R/B 2.6 03:22:29 10° S 03:28:44 76° WSW 03:35:02 10° NNW
Cosmos 1238 Rocket 4.4 03:25:02 10° NNW 03:29:39 31° W 03:34:08 10° SSW
Cosmos 2263 Rocket 2.8 03:26:43 10° NW 03:31:48 35° WSW 03:36:50 10° S
METEOR-M 4.2 03:31:12 10° N 03:36:31 68° WNW 03:41:47 10° SSW
CZ-2D R/B 3.4 03:33:32 10° N 03:37:43 25° WNW 03:41:51 10° WSW
KORONAS-FOTON 3.5 03:34:51 10° N 03:38:24 83° W 03:41:55 10° S
Gbstr 26 Del rocket 4.4 03:31:54 10° WNW 03:38:36 58° SW 03:46:11 10° SE
Cosmos 1076 Rocket 4.0 03:34:33 10° SSW 03:38:39 44° WNW 03:42:45 10° N
H-2A R/B 3.3 03:41:42 10° NNE 03:45:37 83° WNW 03:49:28 10° SSW
OAO 2 Rocket 4.2 03:41:45 10° WSW 03:46:11 32° S 03:50:41 10° ESE
ARGOS Delta rocket 4.2 03:41:18 10° NNE 03:46:41 80° E 03:51:49 10° S
Tiangong -2.0 03:43:55 10° W 03:47:11 68° S 03:50:26 10° E
Meteor 1-27 Rocket 4.1 03:41:54 10° NNW 03:47:39 53° W 03:53:21 10° S
Cosmos 2074 Rocket 4.1 03:44:03 10° SSW 03:50:12 70° W 03:56:25 10° N
Cosmos 2237 4.4 03:45:16 10° SW 03:50:51 60° WNW 03:56:30 10° NNE
